Date,TemperatureHighF,TemperatureAvgF,TemperatureLowF,DewpointHighF,DewpointAvgF,DewpointLowF,HumidityHigh,HumidityAvg,HumidityLow,PressureMaxIn,PressureMinIn,WindSpeedMaxMPH,WindSpeedAvgMPH,GustSpeedMaxMPH,PrecipitationSumIn
2013-1-1,20.6,19.2,17.6,10.4,9.7,8.5,68,66,64,29.97,29.93,1,0,6,0.00
2013-1-2,25.6,19.7,8.1,18.1,12.5,0.9,85,74,62,30.17,29.94,4,1,15,0.00
2013-1-3,14.1,8.6,-4.1,6.4,0.5,-8.0,83,69,62,30.22,30.01,2,0,4,0.00
2013-1-4,36.8,31.9,22.1,24.3,22.2,18.6,87,68,56,29.96,29.82,4,1,15,0.00
2013-1-5,36.9,31.0,21.5,26.5,21.7,17.0,85,69,47,30.23,29.89,5,2,21,0.01
2013-1-6,39.0,30.3,21.7,29.0,25.0,17.9,90,81,65,30.16,29.89,2,0,7,0.01
2013-1-7,29.0,25.0,17.6,20.8,18.6,13.9,85,76,70,30.38,30.29,3,0,7,0.00
2013-1-8,39.1,29.3,9.2,27.7,22.7,6.6,93,77,63,30.35,30.27,3,0,6,0.00
2013-1-9,41.2,34.2,18.3,32.0,28.1,16.6,94,79,58,30.32,29.95,4,1,15,0.00
2013-1-10,40.8,34.7,26.0,27.7,25.4,22.0,85,69,57,30.54,30.39,5,1,16,0.00
2013-1-11,26.0,25.0,24.0,22.3,21.6,20.9,89,87,85,30.53,30.46,0,0,0,0.00
2013-1-13,45.4,45.0,44.6,44.8,44.2,43.8,98,97,97,29.97,29.92,3,2,9,0.23
2013-1-14,45.4,40.0,33.7,42.2,30.5,24.9,92,69,56,30.27,30.06,6,3,21,0.05
2013-1-15,35.2,32.7,29.8,25.7,22.8,21.2,76,67,58,30.34,30.23,2,1,9,0.00
2013-1-16,31.1,30.1,28.4,29.0,28.4,26.6,95,93,92,30.00,29.80,1,0,3,0.00
2013-1-17,35.9,28.8,21.6,32.4,22.5,9.7,96,79,56,30.15,29.82,4,1,15,0.11
2013-1-18,22.2,16.5,9.2,10.8,5.1,-3.3,74,61,42,30.39,30.08,4,1,11,0.00
2013-1-19,42.4,33.4,22.2,27.6,20.7,10.0,66,60,50,30.24,29.75,4,2,13,0.11
2013-1-20,41.9,34.1,20.4,32.7,22.4,10.8,83,63,42,30.00,29.50,8,3,27,0.02
2013-1-21,24.9,20.7,17.5,18.6,12.3,6.1,86,70,55,30.05,29.78,3,0,8,0.00
2013-1-22,18.5,13.9,7.1,15.0,4.4,-3.7,87,67,43,30.12,29.77,6,2,19,0.00
2013-1-23,8.8,3.8,-2.3,2.5,-5.6,-9.1,82,65,51,30.21,30.10,4,1,14,0.00
2013-1-24,12.5,3.6,-6.7,-0.4,-5.5,-11.0,83,66,46,30.38,30.16,6,2,21,0.00
2013-1-25,16.1,9.7,2.8,8.7,-0.9,-6.8,86,63,45,30.41,30.07,5,1,14,0.00
2013-1-26,19.2,11.2,3.8,7.2,4.2,0.3,89,74,53,30.33,30.06,3,1,12,0.00
2013-1-27,24.6,14.1,3.0,7.0,2.9,-0.2,92,63,38,30.51,30.33,3,1,9,0.00
2013-1-28,24.8,22.4,17.2,23.1,19.0,9.7,100,87,65,30.35,29.94,0,0,3,0.00
2013-1-29,37.7,29.8,24.3,36.6,28.2,22.8,100,94,89,30.14,29.97,3,0,9,0.40
2013-1-30,55.5,47.5,37.6,54.5,46.4,36.6,100,96,93,29.99,29.40,6,3,17,0.12
2013-1-31,38.3,36.9,35.2,27.4,23.9,20.5,66,59,54,29.32,29.18,8,5,28,0.37
2013-2-4,25.2,21.4,17.0,14.4,10.3,7.8,76,62,52,29.93,29.82,17,2,17,0.00
2013-2-5,26.2,23.0,17.6,13.4,10.2,6.4,69,58,52,30.01,29.87,5,0,5,0.00
2013-2-6,33.4,27.7,20.3,24.5,13.2,4.7,82,55,40,30.33,29.99,17,3,17,0.00
2013-2-7,23.0,20.1,15.3,5.9,4.7,2.3,61,51,44,30.54,30.37,6,0,6,0.00
2013-2-8,29.2,21.9,17.1,24.1,16.4,5.9,93,80,61,30.38,29.81,10,0,10,0.00
2013-2-9,24.2,17.5,4.2,20.6,10.5,-1.7,93,75,52,30.36,29.83,8,0,8,0.05
2013-2-10,25.9,10.4,-3.4,7.8,1.0,-7.3,92,68,37,30.51,30.29,5,0,5,0.00
2013-2-11,39.7,37.8,34.3,36.9,35.3,31.6,95,90,88,29.92,29.61,13,2,13,0.24
2013-2-12,36.5,35.2,32.8,29.0,27.5,24.8,76,73,69,29.91,29.74,19,3,22,0.00
2013-2-13,37.5,34.0,28.9,26.5,22.0,20.0,78,62,50,29.84,29.70,6,0,6,0.00
2013-2-14,37.7,34.0,29.2,25.2,23.4,21.0,79,65,59,29.92,29.88,15,1,15,0.00
2013-2-15,46.2,41.5,36.1,29.9,26.5,22.9,70,55,47,29.93,29.87,13,2,13,0.00
2013-2-16,32.1,29.2,25.3,19.1,15.7,10.4,71,57,49,29.98,29.86,11,1,11,0.01
2013-2-17,25.9,20.0,12.6,8.1,2.4,-0.6,64,47,34,29.85,29.65,28,4,28,0.00
2013-2-18,25.1,20.7,12.2,7.6,3.1,-3.3,58,46,40,30.20,30.14,17,3,17,0.00
2013-2-19,41.7,34.1,16.7,33.9,24.8,9.4,94,70,51,29.99,29.61,15,2,15,0.10
2013-2-20,28.9,26.4,23.5,17.6,13.3,10.4,72,58,47,29.83,29.71,20,4,20,0.00
2013-2-21,20.7,18.7,16.7,10.7,8.8,6.7,72,65,60,30.31,29.95,27,4,27,0.00
2013-2-22,34.4,31.0,21.4,23.3,21.5,15.8,79,68,62,30.42,30.24,5,0,5,0.00
2013-2-23,34.8,34.0,32.6,33.2,31.0,27.7,95,89,79,30.11,29.89,6,0,7,0.04
2013-2-24,36.3,33.3,30.7,35.1,30.0,26.0,97,88,73,29.92,29.74,16,1,16,0.06
2013-2-25,40.0,36.1,25.7,30.0,27.7,24.1,94,72,60,30.19,30.08,5,0,6,0.01
2013-2-26,42.5,38.5,28.9,30.2,28.1,26.6,93,67,56,30.29,30.06,11,1,13,0.01
2013-2-27,42.7,38.3,32.4,38.5,34.8,31.1,96,88,74,29.76,29.53,20,1,23,0.57
2013-2-28,41.4,38.7,34.7,36.9,35.0,32.2,97,87,78,29.58,29.52,6,0,6,0.08
2013-3-1,38.6,34.6,31.6,33.8,30.9,29.5,96,86,76,29.74,29.65,6,0,8,0.03
2013-3-2,35.2,30.6,25.6,26.2,23.9,22.3,87,76,67,29.76,29.69,12,2,13,0.04
2013-3-3,30.1,26.7,21.7,23.9,20.6,17.7,87,78,71,29.74,29.67,14,3,18,0.04
2013-3-4,31.5,28.7,26.3,22.1,20.9,19.4,80,72,66,29.88,29.74,18,4,22,0.01
2013-3-5,39.9,35.4,30.0,27.6,25.7,21.8,82,68,58,30.05,30.00,8,0,8,0.00
2013-3-6,40.9,37.5,33.7,32.3,27.7,23.4,87,68,60,30.11,30.02,15,1,15,0.00
2013-3-7,37.6,34.1,30.0,29.8,27.2,22.5,93,77,56,30.14,30.08,11,1,12,0.01
2013-3-8,40.5,34.6,28.8,32.4,29.0,25.8,96,81,67,30.27,30.11,6,0,8,0.30
2013-3-9,49.5,41.8,32.5,29.4,26.0,23.8,70,54,40,30.34,30.25,7,0,7,0.15
2013-3-10,52.2,48.6,43.0,30.6,27.4,24.0,54,44,36,30.29,30.15,11,2,12,0.00
2013-3-11,49.3,46.9,42.3,41.1,37.6,35.3,81,70,60,30.15,29.95,16,2,16,0.00
2013-3-12,52.0,46.8,38.5,50.7,45.0,35.8,96,93,90,29.83,29.64,12,1,13,0.78
2013-3-13,44.5,40.3,33.0,29.0,24.8,21.0,80,55,41,29.83,29.74,14,3,16,0.00
2013-3-14,26.5,25.1,23.2,17.4,11.9,7.0,72,57,48,29.88,29.82,22,4,22,0.00
2013-3-15,35.9,32.5,25.7,29.4,24.0,12.2,90,71,52,29.84,29.62,11,2,11,0.00
2013-3-16,34.6,30.4,25.1,17.2,14.9,10.5,66,53,38,29.86,29.76,7,1,8,0.00
2013-3-17,34.6,30.5,23.5,14.8,8.7,5.0,67,41,30,30.26,30.07,17,3,17,0.00
2013-3-18,35.9,32.0,24.8,25.2,10.4,3.1,90,43,30,30.39,30.13,8,1,9,0.00
2013-3-19,34.4,32.2,29.3,32.7,30.6,27.8,95,94,92,29.83,29.68,11,0,11,0.13
2013-3-20,34.9,31.5,26.1,24.6,22.7,20.6,80,70,58,29.78,29.72,15,2,15,0.11
2013-3-21,34.6,31.4,27.4,16.8,14.5,12.2,60,49,44,29.75,29.62,11,2,11,0.13
2013-3-22,34.7,31.9,28.5,24.8,21.9,19.7,76,66,58,29.78,29.68,18,3,22,0.05
2013-3-23,37.7,35.6,32.9,23.6,21.8,19.8,67,57,51,29.85,29.76,20,4,20,0.10
2013-3-24,42.7,38.4,34.0,25.3,23.5,21.4,67,55,45,29.87,29.73,10,1,10,0.04
2013-3-25,42.7,40.0,37.5,28.3,27.5,26.0,69,61,54,29.61,29.50,6,0,7,0.00
2013-3-26,45.9,41.9,34.4,28.5,23.7,20.4,69,49,37,29.79,29.70,7,0,9,0.00
2013-3-27,49.2,44.2,40.0,35.0,30.5,28.4,73,59,49,29.92,29.81,16,2,16,0.01
2013-3-28,47.5,43.1,35.5,35.9,33.6,32.0,88,70,58,30.03,29.96,11,1,11,0.00
2013-3-29,50.6,45.5,39.7,34.8,32.4,29.4,67,60,52,30.09,30.02,16,2,16,0.00
2013-3-30,54.1,49.1,40.4,32.3,25.7,22.8,70,41,32,30.11,30.01,13,2,13,0.00
2013-3-31,55.4,50.3,36.3,38.1,30.3,23.9,73,48,35,30.01,29.74,15,2,15,0.01
2013-4-1,49.7,40.5,33.4,44.1,28.2,13.9,92,63,38,29.82,29.52,26,5,29,0.10
2013-4-2,35.4,32.3,29.6,21.2,17.4,14.3,68,54,43,29.98,29.87,24,4,27,0.02
2013-4-3,39.1,34.8,30.5,18.8,15.5,11.9,60,45,33,30.23,30.04,25,5,25,0.00
2013-4-4,53.1,46.2,35.0,23.1,21.9,19.7,60,39,29,30.29,29.98,10,2,10,0.00
2013-4-5,51.7,46.7,37.5,29.2,25.2,18.9,71,44,32,29.92,29.74,17,4,17,0.00
2013-4-6,46.2,40.1,32.5,15.3,9.9,5.0,47,29,21,30.26,30.20,15,1,15,0.00
2013-4-7,57.8,51.9,41.3,39.6,30.3,20.9,67,45,29,30.07,29.80,19,4,25,0.00
2013-4-8,60.2,54.3,44.2,40.4,35.3,32.7,67,49,37,30.10,29.96,9,1,10,0.00
2013-4-9,57.8,54.5,50.1,49.2,43.7,41.6,81,67,58,30.01,29.85,14,3,16,0.08
2013-4-10,56.6,51.1,45.3,50.8,48.2,44.0,96,90,77,29.97,29.81,7,0,7,1.06
2013-4-11,40.7,36.8,31.5,28.8,25.9,21.6,88,65,49,30.11,29.99,10,1,10,0.05
2013-4-12,37.5,35.6,32.0,36.5,34.5,30.5,96,96,94,29.95,29.75,3,0,3,0.61
2013-4-13,49.2,45.4,38.4,41.7,38.9,37.1,97,78,66,29.90,29.79,13,0,14,0.02
2013-4-14,45.6,43.1,34.4,35.6,28.9,26.0,81,58,48,30.19,30.01,17,2,17,0.03
2013-4-15,60.7,51.5,29.9,37.1,32.5,26.8,93,50,39,30.34,30.18,9,1,12,0.00
2013-4-16,59.0,56.0,48.2,54.1,49.0,39.2,91,78,66,30.22,29.97,18,3,18,0.19
2013-4-17,63.7,57.3,46.4,38.7,34.7,31.3,70,44,31,30.26,30.18,13,1,14,0.00
2013-4-18,64.3,57.5,47.0,43.3,37.5,33.3,67,48,36,30.29,30.02,17,3,17,0.00
2013-4-19,71.2,67.5,49.7,62.0,59.7,46.4,89,76,72,29.83,29.46,23,3,26,0.40
2013-4-20,52.1,46.7,36.9,40.3,30.7,24.5,94,55,40,30.25,29.80,23,3,23,0.22
2013-4-21,50.3,44.7,35.3,24.0,20.8,17.9,52,39,30,30.61,30.53,9,1,10,0.00
2013-4-22,58.7,51.7,40.4,28.5,24.4,19.8,56,35,25,30.68,30.45,10,1,13,0.00
2013-4-23,53.6,48.4,39.7,39.2,35.3,27.4,74,60,56,30.41,30.13,7,0,8,0.00
2013-4-24,69.9,58.4,45.0,50.5,45.0,39.2,82,62,47,30.00,29.63,12,2,15,0.00
2013-4-25,56.1,49.9,41.5,33.0,30.8,29.0,65,49,37,30.22,30.14,14,2,15,0.02
2013-4-26,57.4,51.4,41.9,38.1,32.4,27.6,81,50,34,30.41,30.35,11,1,11,0.00
2013-4-27,64.5,59.0,48.2,35.9,32.2,25.9,61,37,25,30.42,30.23,7,1,7,0.00
2013-4-28,72.5,67.2,54.3,42.2,38.5,36.5,52,35,28,30.26,30.06,9,1,10,0.00
2013-4-29,59.8,57.3,53.4,47.5,45.3,43.1,80,64,56,30.18,30.12,11,1,11,0.00
2013-4-30,72.6,66.1,58.1,47.4,41.8,37.3,64,42,30,30.26,30.18,9,1,10,0.01
2013-5-1,76.8,70.7,60.4,40.1,36.2,32.4,41,29,22,30.41,30.29,7,1,8,0.00
2013-5-2,81.9,75.5,64.1,47.8,43.3,39.1,51,33,24,30.41,30.20,14,1,14,0.00
2013-5-3,73.0,67.1,59.7,41.8,37.2,34.6,50,34,26,30.41,30.25,9,0,9,0.00
2013-5-4,77.2,71.3,61.8,46.6,42.5,34.8,54,36,27,30.29,30.11,8,0,8,0.00
2013-5-5,75.0,69.1,59.0,39.2,36.2,32.4,41,30,25,30.23,30.08,8,0,8,0.00
2013-5-6,75.3,69.1,59.8,44.9,36.3,23.5,55,32,17,30.20,30.02,8,1,8,0.00
2013-5-7,80.5,74.5,66.1,55.3,51.5,41.7,68,46,28,30.10,29.98,7,0,7,0.00
2013-5-8,72.4,64.5,55.0,61.6,57.1,52.1,93,78,60,30.10,29.93,8,0,9,0.15
2013-5-9,68.9,65.6,62.5,56.4,54.8,53.0,74,68,60,29.91,29.84,9,1,9,0.00
2013-5-12,58.3,53.0,49.0,33.5,31.0,29.1,48,43,33,29.79,29.68,10,1,10,0.01
2013-5-13,49.5,46.4,39.8,32.2,30.0,28.0,71,53,46,30.03,29.97,9,1,11,0.00
2013-5-14,57.4,53.6,46.8,34.6,31.3,28.0,59,43,35,30.07,29.97,9,0,9,0.00
2013-5-15,63.9,57.9,51.5,52.7,47.3,35.6,87,69,48,29.88,29.56,10,1,10,0.05
2013-5-20,80.2,79.3,78.5,66.4,66.0,65.5,66,64,62,29.88,29.88,0,0,4,0.00
2013-5-27,70.0,65.2,57.6,42.6,39.3,36.3,50,39,32,30.10,30.06,9,0,9,4.85
2013-5-28,69.8,63.6,59.6,53.1,48.8,43.4,79,60,39,30.17,30.07,6,0,6,0.00
2013-5-29,77.2,70.2,58.6,70.5,65.6,57.8,98,86,77,30.00,29.86,16,0,16,0.33
2013-5-30,86.8,79.6,65.2,72.3,68.4,64.9,99,71,51,30.07,29.98,9,0,9,0.01
2013-5-31,91.8,84.5,72.0,71.5,69.9,67.2,94,63,45,30.06,29.93,6,0,6,0.00
2013-6-12,71.3,67.3,60.5,57.1,56.1,54.4,83,68,57,29.81,29.76,1,0,1,18.65
2013-6-13,57.4,56.6,55.0,56.6,55.9,54.2,98,97,96,29.73,29.63,3,0,3,1.36
2013-6-14,74.8,69.6,55.5,65.0,60.8,55.2,99,74,55,29.77,29.70,7,0,8,0.01
2013-6-15,76.3,72.0,64.3,54.1,49.6,46.2,69,46,37,29.96,29.86,10,0,10,0.00
2013-6-16,70.3,66.4,64.4,63.8,61.1,57.3,94,84,65,29.80,29.66,7,0,7,0.02
2013-6-17,82.3,73.6,68.0,66.8,64.1,60.6,93,73,52,29.83,29.74,7,0,7,0.06
2013-6-18,63.6,61.5,60.3,57.1,54.5,52.3,85,78,74,29.93,29.89,6,0,7,0.00
2013-6-19,71.0,66.9,60.3,52.0,48.0,44.4,67,51,42,30.09,30.02,6,0,7,0.00
2013-6-20,78.7,73.6,64.7,60.5,53.9,46.9,73,51,40,30.23,30.13,6,0,6,0.00
2013-6-21,83.1,78.8,68.3,63.4,54.6,47.8,67,44,31,30.23,30.14,4,0,5,0.00
2013-6-22,83.6,79.9,71.3,67.4,65.7,62.4,74,62,54,30.16,30.01,6,0,6,0.00
2013-6-23,90.2,86.1,77.2,75.2,71.5,66.1,72,62,53,30.03,29.90,8,0,8,0.00
2013-6-24,91.2,81.0,68.0,77.4,71.3,66.0,95,74,54,29.96,29.85,6,0,12,0.37
2013-6-25,90.2,80.2,71.7,74.7,72.4,69.2,97,79,58,29.87,29.70,7,0,8,0.37
2013-6-26,81.8,76.7,70.2,72.8,71.1,68.7,98,83,70,29.78,29.73,4,0,4,0.09
2013-6-27,85.8,81.7,76.0,72.4,69.8,65.7,84,68,56,29.73,29.62,2,0,3,0.02
2013-6-28,79.0,76.9,74.1,71.0,68.4,65.9,89,75,69,29.44,29.41,5,0,5,0.88
2013-6-30,71.7,70.4,69.6,69.9,68.4,67.6,94,93,93,29.84,29.79,6,0,6,0.12
2013-7-1,74.0,71.3,68.6,72.2,69.8,68.0,98,95,89,29.97,29.91,4,0,4,0.26
2013-7-2,80.7,76.4,67.0,75.1,72.3,66.7,99,87,82,30.06,30.03,2,0,2,0.09
2013-7-3,85.5,82.2,75.0,75.6,74.4,72.9,95,78,70,30.15,30.06,5,0,7,0.01
2013-7-4,88.5,86.1,80.7,77.7,75.6,73.4,80,71,64,30.15,30.02,7,0,7,0.00
2013-7-5,89.2,84.4,78.7,81.5,77.0,73.5,94,79,64,30.10,29.96,5,0,5,0.14
2013-7-6,86.0,83.6,79.3,72.6,69.7,64.8,76,63,52,30.06,29.96,8,0,8,0.01
2013-7-7,77.8,76.3,73.1,75.9,74.5,71.3,95,94,94,29.90,29.86,0,0,0,0.93
2013-7-8,84.1,80.2,74.0,73.2,71.0,68.3,94,74,62,29.97,29.90,5,0,6,0.00
2013-7-9,85.3,82.4,76.1,74.4,72.6,70.4,86,73,64,30.03,29.92,0,0,0,0.00
2013-7-10,79.5,76.7,75.5,76.1,74.8,73.0,96,94,82,29.84,29.72,4,0,5,0.33
2013-7-11,81.6,78.0,72.5,66.8,64.7,61.8,80,64,55,29.90,29.81,7,0,8,0.00
2013-7-12,81.7,78.2,73.6,67.3,64.9,62.9,72,64,58,30.07,30.04,4,0,4,0.00
2013-7-21,82.5,78.4,72.9,66.3,64.5,62.5,75,63,51,29.93,29.88,4,0,4,0.00
2013-7-22,79.9,79.7,79.6,71.1,70.7,70.3,75,74,73,29.78,29.77,0,0,0,0.00
2013-7-23,79.7,74.3,69.8,73.1,70.9,67.5,98,89,78,29.59,29.51,3,0,5,0.94
2013-7-24,75.8,69.2,60.3,67.5,60.1,50.1,96,74,53,29.99,29.55,13,0,14,0.00
2013-7-25,71.7,61.9,50.5,58.1,52.4,47.4,93,72,55,30.08,29.99,5,0,6,0.00
2013-7-26,75.5,71.3,64.1,62.0,59.7,56.7,84,67,57,30.05,29.95,7,0,7,0.00
2013-7-27,81.2,78.9,73.2,65.0,63.4,57.6,72,59,46,30.00,29.88,5,0,5,0.00
2013-7-28,71.9,70.5,69.2,69.3,67.5,65.2,94,90,85,29.92,29.88,7,0,7,0.19
2013-7-29,78.3,74.6,68.3,64.1,59.9,56.1,80,61,51,30.04,29.95,5,0,6,0.00
2013-7-30,71.2,69.5,67.4,60.7,59.9,58.3,78,71,65,30.13,30.07,4,0,4,0.00
2013-7-31,78.7,75.3,63.9,63.2,60.6,55.1,89,61,47,30.13,29.97,5,0,5,0.00
2013-8-1,75.3,69.5,66.5,68.4,65.1,63.4,91,86,76,29.90,29.78,7,0,10,0.04
2013-8-2,79.7,76.3,70.5,64.0,60.5,57.0,80,59,50,29.83,29.76,9,0,9,0.01
2013-8-3,78.7,74.9,67.8,62.9,56.3,49.8,83,54,40,29.83,29.76,12,1,12,0.00
2013-8-4,74.7,71.3,67.2,63.9,57.5,53.8,83,62,55,29.90,29.79,13,1,13,0.04
2013-8-5,75.2,71.9,65.4,53.3,48.6,44.6,60,44,37,30.02,29.93,9,0,11,0.00
2013-8-6,76.4,70.7,65.9,58.8,56.5,53.3,68,61,46,30.08,30.03,3,0,3,0.00
2013-8-7,75.5,73.6,70.6,64.6,63.4,61.8,77,71,67,30.08,29.98,8,0,8,0.00
2013-8-8,83.3,78.4,70.8,72.6,70.5,67.7,90,77,67,29.98,29.89,9,0,9,0.00
2013-8-9,75.3,74.2,72.4,74.1,73.1,71.7,98,96,93,29.80,29.72,2,0,3,0.68
2013-8-10,76.1,73.1,66.5,61.6,54.2,48.8,71,52,44,29.99,29.91,15,1,15,0.00
2013-8-11,76.6,73.5,67.4,59.3,56.3,52.3,72,55,47,30.08,29.96,5,0,6,0.00
2013-8-12,78.7,74.7,67.2,65.9,61.8,57.4,82,65,51,29.99,29.86,5,0,6,0.00
2013-8-13,72.8,68.0,64.0,68.9,65.8,62.2,97,93,87,29.78,29.61,7,0,7,1.55
2013-8-14,68.4,64.8,56.3,58.1,55.6,53.5,93,73,63,29.93,29.78,11,1,12,0.00
2013-8-15,72.1,69.3,63.8,56.5,54.2,51.1,74,59,49,30.08,30.01,8,0,9,0.00
2013-8-16,76.0,72.6,64.8,60.9,56.0,52.7,76,57,46,30.15,30.09,6,0,9,0.00
2013-8-17,77.7,73.8,66.8,65.7,60.7,55.5,80,64,48,30.27,30.19,4,0,5,0.00
2013-8-18,74.1,71.5,65.7,66.4,64.5,62.1,89,79,72,30.23,30.08,1,0,1,0.00
2013-8-19,79.4,75.3,67.6,64.9,63.1,58.2,90,67,50,30.04,29.94,5,0,5,0.00
2013-8-20,81.4,75.7,58.5,65.9,62.9,57.1,96,66,51,30.08,30.02,9,0,9,0.00
2013-8-21,84.1,79.9,71.4,71.2,67.1,64.2,81,66,53,30.14,29.99,4,0,4,0.00
2013-8-22,84.9,80.2,69.4,72.7,69.1,65.6,94,70,53,29.96,29.77,7,0,7,0.00
2013-8-23,74.6,71.8,66.1,62.4,57.2,51.6,85,61,45,30.08,29.97,5,0,5,0.00
2013-8-24,75.7,70.2,60.2,58.0,53.7,48.8,88,57,41,30.30,30.24,6,0,6,0.00
2013-8-25,80.0,73.0,63.1,63.7,59.9,57.9,84,64,51,30.35,30.11,5,0,5,0.00
2013-8-26,77.3,72.6,65.6,69.5,67.3,62.3,94,84,75,30.03,29.88,5,0,5,0.29
2013-8-27,80.0,75.4,68.5,72.5,70.4,67.9,98,85,73,29.89,29.81,3,0,4,0.06
2013-8-28,84.3,79.1,67.5,73.1,70.7,66.6,98,77,62,29.87,29.77,3,0,3,0.00
2013-8-29,79.0,76.7,72.4,69.8,67.9,66.5,85,74,68,30.00,29.93,2,0,3,0.00
2013-8-30,82.6,77.6,68.6,72.3,69.7,67.3,96,77,67,29.92,29.76,3,0,4,0.01
2013-8-31,78.6,73.4,68.9,75.5,71.8,67.7,98,95,87,29.76,29.70,5,0,5,0.99
2013-9-1,80.8,77.0,70.4,74.4,72.7,70.1,99,87,78,29.83,29.75,3,0,3,0.00
2013-9-2,79.3,75.8,68.8,74.1,71.9,66.2,97,88,81,29.75,29.61,8,0,8,0.45
2013-9-3,72.5,68.2,63.3,64.0,60.5,57.3,98,77,59,29.82,29.72,7,0,7,0.00
2013-9-4,75.7,70.1,64.5,59.8,57.9,54.9,76,66,49,29.92,29.86,9,0,9,0.00
2013-9-5,68.2,64.4,56.9,53.5,47.3,41.3,74,55,38,30.09,29.98,9,0,9,0.00
2013-9-6,66.5,61.6,55.1,51.2,45.1,38.2,79,56,42,30.26,30.09,6,0,6,0.00
2013-9-7,72.8,67.0,58.4,61.1,57.6,52.8,88,72,58,30.02,29.87,4,0,4,0.00
2013-9-8,68.8,66.5,61.2,57.3,47.4,40.8,78,51,39,29.99,29.83,10,1,10,0.00
2013-9-11,90.1,84.5,72.5,79.9,76.2,68.5,88,77,71,30.01,29.88,5,0,5,0.09
2013-9-12,79.7,70.8,68.8,74.1,69.7,67.6,98,96,83,29.80,29.64,5,0,5,0.66
2013-9-13,65.8,60.6,56.6,63.8,59.1,55.6,97,95,88,29.81,29.63,5,0,5,1.14
2013-9-14,61.4,58.7,54.9,52.2,50.4,47.1,83,74,69,30.05,29.94,8,0,8,0.00
2013-9-15,66.4,62.9,55.9,56.5,53.8,48.4,85,72,64,30.17,30.02,5,0,5,0.00
2013-9-16,62.6,54.8,46.8,55.2,50.2,43.1,92,85,75,30.23,30.05,7,0,9,0.11
2013-9-17,60.2,56.4,50.0,48.3,44.1,41.2,83,64,52,30.46,30.31,8,0,8,0.00
2013-9-18,67.3,59.9,46.8,55.3,50.9,45.6,96,73,57,30.31,30.12,4,0,4,0.00
2013-9-19,71.6,65.9,57.8,59.3,55.3,52.1,84,69,51,30.13,30.00,4,0,4,0.00
2013-9-20,75.8,69.6,59.0,61.4,58.4,56.0,92,68,53,30.06,29.90,5,0,5,0.00
2013-9-21,71.8,69.9,65.3,64.4,61.8,57.0,85,76,68,29.81,29.59,13,1,13,0.01
2013-9-22,60.3,57.6,53.0,52.9,47.6,44.3,86,70,59,29.84,29.71,10,0,14,0.18
2013-9-23,59.0,54.8,49.9,45.9,43.3,40.4,78,65,58,30.03,29.95,8,1,8,0.00
2013-9-24,63.4,58.6,50.5,49.7,46.6,42.5,74,65,56,29.98,29.85,9,0,9,0.00
2013-9-25,65.5,60.1,55.2,53.4,50.5,48.1,89,71,60,29.93,29.86,4,0,4,0.00
2013-9-26,62.4,58.2,51.1,51.1,49.3,47.4,94,73,62,30.09,30.02,7,0,7,0.00
2013-9-27,59.6,57.3,51.5,52.9,52.2,50.4,96,83,76,30.25,30.21,3,0,4,0.00
2013-9-28,68.8,62.6,52.7,58.2,55.6,51.9,100,79,62,30.35,30.21,3,0,3,0.00
2013-9-29,69.4,63.5,53.8,59.3,55.4,51.8,100,76,56,30.18,30.02,3,0,3,0.00
2013-9-30,69.0,64.3,56.7,57.4,54.7,51.8,94,72,56,30.04,29.93,3,0,3,0.00
2013-10-1,74.1,68.2,57.6,62.2,58.8,56.1,95,73,60,29.97,29.85,6,0,9,0.00
2013-10-2,73.7,69.5,62.0,64.1,61.7,57.5,96,77,66,29.94,29.86,10,0,10,0.00
2013-10-3,69.0,65.3,57.5,58.9,54.6,50.2,90,69,54,30.10,29.99,5,0,5,0.00
2013-10-4,59.0,58.2,56.2,58.4,57.2,55.1,98,96,95,30.06,30.00,3,0,3,0.34
2013-10-5,60.3,58.6,55.0,56.0,55.0,52.9,94,88,82,30.08,30.04,3,0,4,0.02
2013-10-6,59.7,58.3,53.6,59.1,56.6,52.8,100,94,90,30.08,30.02,7,0,7,0.37
2013-10-7,74.0,64.4,55.2,67.9,61.1,53.8,95,89,77,29.87,29.58,12,0,12,0.44
2013-10-8,62.5,57.9,49.2,48.8,44.7,40.6,85,62,49,30.30,30.21,6,0,6,0.00
2013-10-9,62.1,42.7,37.2,48.9,39.7,35.6,97,90,49,30.47,30.31,4,0,4,0.00
2013-10-10,58.2,55.2,48.2,52.3,50.5,47.1,96,84,75,30.29,30.16,3,0,3,0.00
2013-10-11,66.1,51.2,47.4,54.7,48.3,46.0,99,91,53,30.15,30.05,3,0,3,0.00
2013-10-12,70.8,47.6,40.5,55.8,44.4,38.9,100,90,56,30.30,30.12,9,0,9,0.00
2013-10-13,67.2,53.2,48.5,53.3,49.1,45.8,96,87,54,30.39,30.27,5,0,6,0.00
2013-10-14,65.3,51.4,47.0,56.2,47.6,44.7,98,87,69,30.33,30.20,4,0,4,0.00
2013-10-15,66.6,57.7,56.0,59.2,54.9,53.7,94,91,76,30.23,30.08,3,0,4,0.00
2013-10-16,63.3,54.0,51.4,55.8,49.1,44.3,94,84,74,30.08,29.86,7,0,7,0.00
2013-10-17,67.0,59.3,56.2,56.7,54.5,49.5,92,85,54,29.86,29.64,9,0,9,0.00
2013-10-18,61.9,54.3,48.4,53.6,50.0,37.7,96,87,41,29.89,29.54,12,1,14,0.02
2013-10-19,63.0,44.4,38.3,47.3,39.0,36.5,93,83,46,29.93,29.68,9,0,9,0.00
2013-10-20,57.7,49.2,43.0,49.1,40.7,34.6,85,73,43,29.96,29.65,11,1,11,0.01
2013-10-21,65.2,46.4,40.0,43.7,39.9,36.8,92,80,43,30.08,29.90,10,0,10,0.00
2013-10-22,54.6,51.7,42.6,49.1,43.9,36.4,90,75,61,29.87,29.72,9,2,10,0.01
2013-10-23,51.4,38.2,34.3,39.6,33.9,32.4,100,86,50,29.80,29.59,5,0,6,0.00
2013-10-24,48.4,38.6,33.8,36.0,32.7,28.0,92,81,45,29.87,29.69,11,1,11,0.00
2013-10-25,48.2,38.9,35.5,35.2,33.4,28.9,89,81,52,30.13,29.91,12,1,15,0.00
2013-10-26,52.6,40.4,32.9,34.8,32.4,29.1,96,75,42,30.12,29.82,10,2,10,0.00
2013-10-27,49.7,44.2,39.9,36.5,35.2,32.6,76,71,52,30.01,29.77,15,1,19,0.00
2013-10-28,53.5,34.6,29.4,38.2,29.9,26.4,96,85,41,30.30,30.04,11,0,14,0.00
2013-10-29,44.7,30.9,25.5,27.6,23.3,21.3,87,74,42,30.45,30.35,6,0,6,0.00
2013-10-30,37.1,33.4,31.7,34.9,28.9,26.2,92,83,80,30.32,30.26,0,0,0,0.01
2013-10-31,57.7,37.7,31.4,57.1,36.1,29.6,98,94,91,30.21,29.74,9,0,9,0.25
2013-11-1,68.6,61.7,55.2,61.8,57.3,41.1,97,87,39,29.63,29.33,17,5,17,0.19
2013-11-2,56.4,43.5,37.9,48.9,39.5,35.8,96,86,68,29.72,29.58,14,0,14,0.00
2013-11-3,41.3,37.2,31.5,36.0,29.0,18.2,84,73,49,30.41,29.79,8,1,8,0.00
2013-11-4,39.1,25.9,21.7,22.7,18.3,15.9,89,75,40,30.66,30.46,8,0,8,0.00
2013-11-5,49.9,30.6,24.6,36.4,24.1,20.1,88,77,55,30.66,30.47,9,0,10,0.00
2013-11-6,58.6,47.0,44.3,46.1,40.6,37.9,85,79,63,30.43,29.99,11,1,11,0.00
2013-11-7,55.9,52.7,40.7,51.3,47.3,34.3,94,82,66,29.90,29.74,14,3,14,0.02
2013-11-8,44.2,37.9,34.4,34.7,32.6,25.3,86,82,50,30.09,29.85,23,2,23,0.00
2013-11-9,41.5,30.5,26.0,31.3,25.5,22.4,89,82,65,30.22,29.99,6,0,6,0.00
2013-11-10,48.2,42.4,39.8,39.6,33.3,29.0,90,70,58,29.89,29.73,13,2,14,0.03
2013-11-11,46.9,39.9,36.1,32.3,29.0,27.1,72,65,51,30.13,29.88,14,3,14,0.00
2013-11-12,43.8,32.8,25.2,35.9,25.3,16.0,88,74,58,30.23,29.90,18,4,18,0.01
2013-11-13,34.4,23.1,17.7,20.2,14.6,9.5,80,70,37,30.35,30.22,12,1,12,0.00
2013-11-14,50.1,31.3,26.2,26.0,20.6,18.9,75,66,37,30.13,30.04,11,1,11,0.00
2013-11-15,54.1,33.2,28.2,26.2,21.1,19.2,76,63,27,30.17,30.07,6,0,7,0.00
2013-11-16,57.4,41.1,37.1,37.3,29.9,26.4,71,65,45,30.28,30.15,6,0,6,0.00
2013-11-17,59.0,46.2,39.2,57.3,42.8,34.2,97,88,81,30.21,29.72,9,1,9,0.00
2013-11-18,61.4,56.6,45.3,58.0,48.9,31.4,93,77,41,29.69,29.42,19,5,19,0.00
2013-11-19,39.5,36.6,30.3,30.0,24.9,18.8,79,63,49,30.28,29.74,20,6,21,0.00
2013-11-20,35.6,24.7,20.4,18.5,16.2,14.2,80,70,46,30.60,30.37,6,0,7,0.00
2013-11-21,42.3,23.3,16.1,29.9,17.7,13.2,91,80,48,30.62,30.38,8,0,8,0.00
2013-11-22,41.7,37.2,35.9,40.6,34.1,30.1,96,89,76,30.33,29.86,3,0,3,0.00
2013-11-23,44.1,35.3,25.2,39.6,28.0,18.9,90,75,47,30.01,29.82,25,6,25,0.00
2013-11-24,23.9,16.3,12.7,14.6,5.9,3.1,85,64,41,30.27,29.94,19,5,20,0.00
2013-11-25,30.3,14.7,8.4,16.8,5.5,1.6,79,67,55,30.42,30.20,10,0,10,0.00
2013-11-26,33.9,28.7,25.8,29.3,22.8,15.9,93,80,55,30.27,30.07,7,1,7,0.00
2013-11-27,36.6,33.4,31.6,35.8,32.3,30.1,97,96,94,29.91,29.37,14,1,14,0.00
2013-11-28,30.5,24.7,17.5,26.5,16.7,9.8,85,72,53,30.40,29.60,25,8,25,0.00
2013-11-29,30.2,20.3,17.3,17.4,15.0,12.0,89,81,51,30.70,30.42,10,0,10,0.00
2013-11-30,28.9,14.8,8.7,14.0,8.9,5.4,89,78,48,30.78,30.41,8,0,9,0.00
2013-12-1,37.9,29.2,25.5,30.4,24.1,20.5,90,81,69,30.34,30.02,7,1,7,0.00
2013-12-2,37.1,31.7,30.1,32.3,29.1,27.0,92,90,81,30.00,29.86,2,0,2,0.00
2013-12-3,41.7,29.5,26.5,36.3,27.1,24.6,96,91,69,29.95,29.88,7,0,8,0.00
2013-12-4,39.7,26.4,22.8,31.7,23.6,21.1,95,89,62,30.13,29.99,5,0,5,0.00
2013-12-5,52.7,35.9,27.5,51.4,33.8,25.0,96,92,90,30.13,29.84,12,1,13,0.00
2013-12-6,50.6,41.5,35.3,48.7,38.6,29.2,95,89,78,30.14,29.86,12,2,12,0.00
2013-12-7,35.1,31.1,28.9,29.3,27.8,20.9,93,88,67,30.42,30.12,13,1,13,0.00
2013-12-8,29.5,26.3,23.6,22.2,20.3,18.8,87,78,65,30.57,30.45,12,1,12,0.00
2013-12-9,34.6,27.1,24.8,32.8,23.9,18.8,95,88,69,30.41,29.87,8,0,9,0.00
2013-12-10,34.1,32.6,29.1,30.6,27.2,23.4,90,81,66,29.96,29.84,8,1,9,0.00
2013-12-11,28.8,23.1,17.8,20.5,13.3,8.6,88,66,54,30.18,29.99,12,3,13,0.00
2013-12-12,22.0,17.7,12.8,17.0,8.8,0.5,83,68,44,30.32,30.08,10,1,10,0.00
2013-12-13,27.5,20.2,13.6,19.9,10.2,5.9,80,65,52,30.29,29.94,13,3,13,0.00
2013-12-14,11.8,8.2,6.1,6.2,0.2,-2.2,86,69,63,30.58,30.23,5,0,5,0.00
2013-12-15,27.7,21.0,10.5,25.4,18.2,7.6,99,89,83,30.03,29.53,15,2,15,0.00
2013-12-16,23.9,20.5,10.7,21.4,12.9,4.9,90,73,61,30.18,29.72,18,3,18,0.00
2013-12-17,10.0,-0.6,-5.9,7.2,-4.1,-9.5,96,85,83,30.23,30.02,2,0,2,0.00
2013-12-18,24.3,13.6,9.3,19.8,10.8,6.7,100,89,80,30.04,29.96,3,0,3,0.00
2013-12-19,37.3,26.7,23.0,26.5,22.5,19.4,91,84,61,30.07,29.93,7,0,9,0.00
2013-12-20,41.2,32.6,29.7,35.9,29.0,26.3,95,87,66,30.06,29.86,10,0,10,0.00
2013-12-21,48.1,41.1,36.9,40.7,34.9,32.3,96,79,68,29.88,29.78,7,1,7,0.00
2013-12-22,42.6,32.2,29.7,41.9,31.2,28.7,99,96,95,29.84,29.59,7,0,7,0.00
2013-12-23,42.3,37.4,34.0,41.8,36.9,31.9,99,98,92,30.13,29.90,14,0,14,0.00
2013-12-24,32.1,26.7,19.0,27.2,20.5,9.7,84,77,64,30.26,30.09,17,1,18,0.00
2013-12-25,17.6,11.9,7.2,6.8,2.8,0.0,72,67,54,30.54,30.33,15,2,15,0.00
2013-12-26,29.1,16.9,14.1,24.6,9.7,6.4,89,73,70,30.38,30.08,13,0,13,0.00
2013-12-27,32.6,22.3,17.7,24.6,18.6,15.5,93,86,64,30.27,30.18,6,0,7,0.00
2013-12-28,40.3,29.0,25.9,29.8,23.6,20.8,92,80,63,30.18,30.00,7,1,7,0.00
2013-12-29,38.8,27.7,25.2,33.7,26.0,23.3,96,93,78,30.01,29.55,3,0,3,0.00
2013-12-30,33.7,28.9,13.6,32.9,25.3,5.5,97,87,57,30.18,29.61,20,3,20,0.00
2013-12-31,21.3,11.6,7.6,18.8,6.7,3.5,92,80,62,30.18,29.99,14,0,17,0.00
2014-1-1,22.2,12.4,7.8,14.5,6.3,2.6,89,76,59,30.36,30.17,9,0,9,0.00
2014-1-2,15.9,4.2,-1.8,12.2,0.2,-5.7,92,83,81,30.34,29.95,7,1,7,0.00